Theta_e
322 322 321 321 320 320 320 320 319 319 320 320 321 320 319 321 323 323 324 323 323 324 324 324 325 324 324 324 324 325 327 328 328 328 327 327 327 327 327 327 327 328 328 328 328 327 330 333 330 328 325 323 325 326 326 324 321 323 323 323 324 324 326
322 322 321 320 320 321 321 320 321 320 319 320 320 320 318 318 320 320 320 320 321 322 323 322 323 323 322 322 323 324 325 326 326 327 326 326 326 327 327 327 326 328 328 327 325 324 327 330 331 330 322 316 320 322 324 326 325 324 322 321 323 323 326
322 321 320 320 322 322 321 320 320 319 318 318 318 319 317 315 316 316 315 313 314 317 319 320 321 321 320 320 321 322 323 324 324 322 321 321 322 323 325 326 327 327 325 321 320 320 322 324 326 326 318 314 317 317 318 322 324 325 324 322 322 322 323
321 320 320 321 322 321 319 319 318 317 317 316 316 316 316 315 315 315 313 312 313 314 315 317 318 318 318 318 319 319 320 320 318 317 317 317 318 318 320 323 324 322 319 316 316 316 317 318 321 320 315 314 316 314 314 317 319 323 323 323 324 322 322
321 319 320 322 321 320 317 317 316 316 315 315 314 314 314 315 315 314 314 315 315 315 315 314 315 316 317 317 317 318 318 317 316 316 316 316 316 316 316 316 317 316 315 315 315 314 314 315 317 316 313 314 316 314 314 314 315 317 319 321 324 325 325
320 319 321 322 321 319 317 316 316 315 314 313 313 313 312 313 315 314 314 315 315 314 314 313 313 313 314 314 314 314 317 317 316 314 314 314 314 314 313 312 313 313 313 313 313 313 314 313 313 313 313 314 315 314 314 314 313 314 314 316 319 323 326
319 319 321 321 320 318 317 316 315 311 311 311 310 311 311 311 312 312 314 315 314 313 314 313 312 310 309 309 307 308 312 315 316 314 314 314 313 312 312 312 312 313 313 312 312 312 313 313 313 313 313 313 314 312 313 313 313 313 313 312 313 316 318
318 319 320 321 320 318 318 317 314 310 310 309 309 311 311 309 309 310 313 313 313 313 315 314 313 310 306 306 305 305 306 308 312 314 313 313 313 312 311 311 312 312 311 310 309 311 312 313 312 312 313 315 318 316 313 313 312 312 312 312 312 311 311
319 318 320 320 319 319 318 317 314 313 312 311 310 312 313 310 308 308 309 310 312 314 314 314 314 310 306 306 307 306 306 306 307 312 314 313 313 312 310 309 309 310 309 307 307 309 311 312 312 312 312 313 317 319 317 316 315 312 311 311 311 310 310
319 319 319 320 320 319 319 318 317 315 314 313 312 313 314 312 309 307 307 308 311 313 314 314 313 310 307 306 307 308 308 306 306 309 313 313 313 312 310 307 308 309 309 309 308 309 310 310 310 310 311 311 312 317 318 319 318 313 310 311 310 310 308
320 319 318 319 320 320 320 319 318 317 317 315 313 313 315 314 312 310 308 307 309 311 313 313 312 311 310 309 309 311 311 309 306 306 309 311 312 311 309 307 309 310 311 310 310 309 309 310 309 308 310 310 310 312 314 316 317 313 310 310 309 308 307
319 319 319 320 321 320 320 320 320 319 318 317 315 314 315 315 314 312 310 309 309 309 311 313 313 312 312 312 311 312 312 310 308 306 306 308 311 311 309 307 308 310 312 311 310 309 310 310 310 309 310 310 310 311 311 311 313 312 310 309 309 308 308
319 320 319 319 320 321 320 320 320 320 319 319 318 316 315 315 315 314 312 312 311 310 310 312 314 313 313 314 313 311 311 310 310 309 308 308 310 310 310 309 309 308 309 309 309 309 309 309 310 310 310 310 310 310 309 309 310 310 308 308 309 309 308
320 321 320 319 320 321 321 320 320 320 319 319 319 318 317 317 316 316 315 314 314 313 311 311 313 312 312 314 314 313 311 310 311 312 310 310 310 311 311 311 310 309 307 306 307 309 308 308 308 309 309 308 308 308 308 307 308 308 307 307 308 308 307
319 320 320 320 319 320 321 320 320 320 320 319 320 319 319 319 319 318 318 317 316 316 315 314 314 313 312 312 313 313 313 310 311 313 312 311 310 309 310 310 310 311 309 305 306 308 308 307 308 308 307 307 306 307 307 307 307 307 307 307 307 306 306
320 320 320 320 320 320 321 320 319 319 320 320 320 320 320 320 320 319 319 319 318 317 317 316 316 315 314 313 312 313 313 311 312 313 312 312 311 309 309 309 309 309 309 307 305 306 308 308 308 308 307 307 306 306 306 306 306 306 306 306 306 305 305
321 321 321 321 320 320 321 320 319 319 320 320 321 320 320 320 320 320 320 320 319 319 318 318 317 317 316 315 313 313 313 312 312 312 312 312 312 311 310 309 308 308 308 308 306 305 307 308 308 308 308 306 305 305 305 305 305 305 305 304 304 304 303
320 321 321 321 321 321 322 321 320 320 320 321 321 321 321 320 320 321 320 320 320 319 319 319 318 318 317 317 316 314 314 313 313 313 312 312 312 312 311 310 309 309 308 309 308 306 306 308 308 308 307 304 303 303 303 304 304 304 303 302 302 301 300
320 320 320 320 320 321 322 322 321 321 321 320 320 320 320 321 321 321 321 320 320 320 319 319 319 319 318 318 317 316 315 314 314 314 313 312 311 312 311 310 310 309 308 309 309 307 307 307 307 307 304 301 299 299 299 300 299 299 298 299 299 298 297
320 320 319 319 320 320 320 322 322 322 322 321 321 320 320 320 321 322 321 320 320 320 320 320 319 319 319 318 318 317 316 315 314 315 314 313 311 311 311 310 310 310 309 308 308 307 307 306 306 305 302 298 295 295 295 295 295 295 295 296 296 296 296
321 320 319 319 320 320 320 321 321 321 321 320 319 319 319 319 319 320 320 320 319 319 319 318 319 319 319 318 318 317 317 316 315 315 315 314 312 312 311 310 310 310 308 308 308 307 306 306 305 303 300 296 294 293 293 293 294 295 295 295 296 296 297
321 321 321 321 322 322 321 321 321 321 320 320 319 319 319 319 319 318 319 318 318 317 317 317 318 319 319 318 318 317 317 316 315 315 315 315 313 312 312 311 310 310 309 308 307 307 305 305 305 303 299 296 295 294 294 295 296 296 295 295 296 297 297
322 322 321 320 319 319 319 320 321 320 320 321 321 321 321 321 321 320 320 319 319 319 318 318 319 319 319 318 318 318 317 316 316 315 315 314 313 312 312 311 311 310 309 308 307 306 305 304 303 302 300 298 297 296 297 297 297 296 296 296 296 297 297
319 318 317 314 313 314 314 316 316 316 317 318 318 318 318 319 319 320 320 320 320 320 320 320 320 319 319 319 318 318 318 317 317 316 316 315 313 312 312 311 311 310 309 307 306 305 304 304 303 302 300 299 298 299 299 299 297 296 296 296 296 296 297
313 312 312 311 312 313 313 314 314 314 315 315 316 317 317 318 319 319 320 320 320 321 320 320 320 320 320 320 319 319 318 318 318 317 316 315 314 313 312 311 310 309 308 307 305 305 304 304 303 302 300 299 299 300 300 300 298 297 296 296 296 296 296
309 309 309 310 311 311 311 311 311 311 311 311 313 315 317 318 319 319 320 320 321 321 321 320 320 321 320 320 319 319 318 318 318 317 316 315 313 312 311 310 309 308 307 306 305 305 304 304 303 302 300 300 300 301 301 300 299 297 297 296 296 296 296
308 307 308 308 308 308 308 308 308 308 308 308 309 311 313 315 317 317 318 320 321 321 320 320 320 320 320 320 319 319 318 318 318 317 317 315 313 312 310 309 308 307 306 305 304 304 304 303 302 301 300 300 300 301 301 300 299 297 297 296 296 296 296
307 307 307 307 307 307 307 307 307 307 307 307 308 308 309 310 313 314 316 318 320 320 319 319 319 319 319 319 318 318 318 318 317 316 315 313 311 310 308 307 307 307 306 305 304 304 303 302 301 301 300 300 300 301 300 299 298 297 297 296 296 296 296
307 308 308 307 307 306 306 307 306 306 306 306 306 307 307 308 309 312 314 316 318 319 318 317 317 317 318 318 318 317 316 315 315 314 312 311 309 308 308 308 307 307 305 304 303 302 302 301 301 301 300 301 301 300 300 298 297 297 297 297 297 296 296
307 308 308 308 307 307 306 306 306 306 305 305 305 306 306 307 307 309 312 314 315 317 317 316 316 316 317 317 316 315 314 313 311 311 310 309 308 308 306 306 306 304 303 302 302 301 301 301 301 301 301 300 300 299 298 298 297 297 297 296 296 296 296
307 308 308 308 307 307 307 307 307 306 305 304 305 306 307 307 307 307 310 313 314 314 315 316 316 316 316 316 315 314 312 310 308 307 307 306 305 304 304 303 303 302 302 301 301 301 301 301 300 300 299 299 298 297 297 296 296 296 296 295 295 294 294
306 307 307 307 308 307 307 307 307 306 306 305 305 306 306 306 307 307 309 312 314 314 314 315 315 315 314 313 313 312 310 309 307 305 304 304 302 302 302 302 302 302 302 302 302 301 301 300 299 299 298 297 296 296 295 295 294 294 293 293 293 293 292
306 306 306 306 307 306 307 307 306 307 307 307 307 307 306 306 307 309 309 311 314 315 314 314 313 313 312 311 310 310 309 308 306 304 303 302 302 301 301 301 300 300 300 300 300 299 298 298 297 297 296 295 295 294 293 293 293 292 292 292 292 292 292
306 306 305 305 306 305 305 306 307 308 308 308 308 307 306 306 308 309 310 311 313 313 313 312 311 309 309 308 307 307 306 305 304 303 301 300 300 299 299 298 298 297 297 297 297 296 296 296 296 295 295 294 293 293 293 292 292 292 292 292 292 292 292
306 305 305 305 305 305 305 306 307 308 308 308 308 307 307 307 308 309 309 310 311 311 310 308 307 306 306 306 305 305 304 303 302 302 301 298 297 297 297 296 296 295 295 295 295 295 295 295 295 294 294 293 293 292 292 292 292 292 292 292 292 292 292
305 305 305 305 305 305 305 305 307 308 308 308 307 307 307 308 308 308 308 309 309 308 306 304 304 303 303 303 303 303 303 301 299 299 299 296 295 295 295 295 295 295 295 296 295 295 294 294 293 293 293 293 293 293 292 292 292 292 291 291 291 291 291
305 304 304 304 304 304 304 304 305 307 308 308 307 307 307 308 307 307 307 307 307 305 302 301 301 301 301 301 301 300 300 299 298 297 296 295 294 294 294 295 295 295 295 295 294 293 293 293 293 293 293 293 292 292 292 291 291 291 290 290 290 290 290
Wind_Speed
22 20 18 17 16 15 13 12 10 9 7 7 7 8 8 8 7 9 11 11 12 12 11 11 10 11 11 11 11 9 6 4 4 4 6 6 5 7 9 8 4 1 1 2 1 1 2 0 2 3 4 5 5 6 8 8 8 9 10 8 7 7 7
22 22 20 19 18 17 16 14 13 12 9 8 7 8 10 12 12 13 13 12 12 12 12 12 11 11 11 10 10 10 9 8 5 5 6 5 4 5 8 8 6 3 2 2 2 2 2 2 1 2 5 6 5 5 5 8 11 11 10 10 10 9 7
24 23 21 21 19 18 17 15 14 13 11 9 8 8 10 12 13 12 11 11 11 12 12 12 12 12 11 10 10 10 9 10 10 9 9 7 6 5 6 7 7 4 2 3 4 3 3 3 2 1 4 6 5 8 10 7 7 10 11 12 12 12 10
27 25 24 24 21 19 18 17 16 14 13 11 10 10 11 12 12 11 11 12 12 12 11 11 11 10 9 9 10 11 11 11 12 11 11 11 12 11 9 7 7 6 5 5 6 6 5 3 2 1 4 5 4 6 12 15 13 7 6 9 12 14 12
27 26 26 26 23 21 19 18 17 15 14 12 10 11 12 13 12 11 11 12 12 12 11 10 10 9 8 8 9 10 10 10 10 9 10 11 11 12 13 11 9 9 8 8 7 8 8 6 4 2 4 5 3 5 11 16 19 20 18 13 6 7 9
25 25 26 26 24 22 21 21 19 17 15 14 13 12 13 14 12 12 12 12 11 11 10 10 9 8 8 8 9 9 10 10 9 9 10 11 11 11 11 10 9 8 8 8 6 7 7 6 7 5 4 4 2 4 9 12 14 17 22 23 19 12 7
24 24 25 25 24 22 21 22 20 19 18 16 15 14 14 14 14 13 13 12 11 10 9 9 9 9 9 10 11 10 10 9 9 10 11 11 11 11 10 9 9 9 8 7 5 5 6 6 8 7 4 3 3 4 8 10 12 14 15 18 21 21 17
24 24 24 24 23 22 21 20 19 19 19 18 17 16 15 15 15 14 14 14 12 10 9 9 8 8 9 11 11 11 11 9 10 11 10 10 10 10 8 7 7 8 7 6 5 6 7 7 9 9 7 4 3 5 6 7 10 14 15 13 14 17 18
25 24 24 23 22 21 20 18 17 18 18 18 18 17 16 14 14 14 14 15 13 11 10 9 7 7 8 9 10 10 11 9 10 11 10 10 9 9 8 6 6 7 8 8 8 7 7 7 7 8 9 8 4 2 4 6 5 9 14 14 11 13 16
26 25 23 23 22 21 19 17 16 17 17 17 18 18 16 13 12 13 14 15 14 12 11 9 7 7 7 7 8 9 9 8 9 11 10 9 8 7 7 7 6 8 9 9 10 9 8 7 6 6 7 8 7 3 2 3 3 3 11 14 11 13 16
25 24 22 21 22 21 20 18 17 17 17 16 16 16 15 13 12 11 12 13 14 13 11 9 7 6 6 7 6 6 6 5 7 8 8 8 7 6 6 7 7 7 8 8 9 8 7 7 7 6 6 6 7 5 3 2 1 2 7 11 12 14 16
24 23 22 21 22 21 21 21 20 19 18 16 16 15 14 13 11 11 10 11 12 12 11 9 8 7 6 6 5 5 5 4 4 6 6 6 6 5 5 6 6 5 5 5 5 5 5 5 6 5 5 5 6 5 3 2 1 1 5 9 11 12 13
24 24 23 22 23 23 22 22 21 21 19 18 16 15 14 13 11 11 10 10 10 10 10 9 8 8 7 6 5 6 6 5 4 3 4 5 6 5 4 4 4 3 4 3 3 3 4 4 5 4 4 5 5 5 6 4 1 4 6 7 8 9 10
24 24 25 25 25 24 24 23 21 21 21 19 17 15 13 12 10 10 9 10 10 9 10 9 8 8 9 8 7 6 6 6 5 4 3 4 6 4 2 1 1 2 3 2 1 2 3 4 5 4 4 5 6 6 7 6 5 7 9 10 10 9 10
25 25 26 28 27 26 26 25 22 21 20 19 18 16 14 12 11 10 9 9 9 9 9 9 9 9 10 10 10 9 8 8 8 7 6 5 5 3 2 2 1 0 3 4 1 1 2 3 3 4 4 5 6 7 8 9 7 7 11 15 15 14 15
22 25 26 28 27 26 26 26 23 22 21 20 20 18 15 14 12 12 11 10 10 10 10 10 10 11 12 12 13 12 11 10 10 11 10 8 7 6 5 4 3 3 2 2 1 1 1 2 3 3 4 5 6 7 8 10 10 8 11 16 17 18 19
17 18 18 22 24 24 26 26 24 23 22 21 21 19 17 16 15 14 14 13 13 13 12 12 13 12 13 13 13 13 13 12 12 12 12 11 10 9 7 6 6 5 3 3 2 1 2 2 3 4 5 6 7 8 8 9 9 9 10 14 17 18 19
20 17 12 14 19 22 23 25 23 22 22 21 21 20 19 18 18 17 17 16 15 15 14 14 15 15 15 15 15 14 14 14 14 14 13 13 13 12 10 8 8 7 5 5 4 4 4 4 5 5 6 8 8 8 9 9 9 10 11 14 17 19 19
19 20 15 12 14 16 17 19 19 19 20 19 19 17 16 16 17 17 18 18 18 18 18 18 18 18 18 18 18 17 16 16 15 15 15 15 15 14 12 10 10 9 8 7 7 6 6 5 6 6 6 8 9 10 10 10 11 12 13 14 16 18 20
15 18 17 14 15 17 16 14 14 15 15 15 14 13 12 12 13 15 16 17 17 17 18 20 21 22 22 21 21 20 19 19 18 17 17 17 16 15 13 12 12 12 10 9 9 8 7 6 5 5 6 8 10 11 10 10 10 10 11 13 15 17 20
14 14 14 15 17 17 15 13 12 13 14 14 14 14 13 14 14 15 16 16 16 15 16 17 20 23 24 24 24 23 22 22 21 20 20 19 18 17 15 14 14 13 12 11 10 9 7 6 5 5 6 8 9 9 9 8 8 9 10 12 14 16 18
12 12 12 13 13 13 11 11 11 13 14 14 14 14 15 16 16 16 18 19 19 19 20 20 19 19 21 22 23 24 24 24 24 23 23 22 20 19 18 16 16 15 14 12 11 9 7 6 5 5 7 8 8 7 7 6 7 9 11 13 14 15 17
8 9 9 8 9 8 8 8 8 9 10 11 12 13 14 15 15 16 18 20 19 19 19 20 19 19 19 19 20 21 23 25 25 25 26 26 24 22 21 20 19 17 15 13 11 9 8 6 6 7 8 9 8 6 5 5 7 8 10 12 13 14 16
7 8 7 6 6 6 6 6 7 8 9 10 11 12 12 13 14 15 16 17 16 16 17 17 18 19 19 19 19 19 21 23 24 25 27 28 27 25 24 23 21 19 17 14 12 9 8 7 7 8 9 10 9 7 6 6 7 8 9 11 12 13 14
8 8 7 6 6 6 6 7 7 7 8 9 9 11 12 13 13 13 14 15 14 14 14 14 14 16 17 18 20 20 21 23 24 24 27 29 29 28 27 25 23 20 18 14 11 9 9 9 8 8 9 10 10 9 8 8 8 9 9 11 12 13 13
8 7 7 6 5 5 4 3 2 2 2 3 5 6 9 10 10 10 11 12 12 12 10 10 11 12 14 15 16 18 20 22 23 23 25 28 30 30 28 26 23 19 16 13 11 10 10 10 9 9 9 10 10 9 9 10 9 9 10 11 13 14 15
6 7 7 7 7 6 5 4 3 1 1 1 2 3 5 6 7 7 8 9 10 10 9 9 9 10 10 11 11 13 15 18 20 22 24 27 30 29 27 24 21 16 13 12 11 11 11 11 10 10 10 10 10 11 11 11 11 10 11 12 13 15 16
5 7 7 6 6 4 3 2 2 1 2 2 3 4 5 6 6 6 7 8 9 9 9 9 9 9 9 9 9 10 13 16 18 20 22 24 25 24 21 18 15 12 12 12 12 11 11 11 10 11 11 12 12 12 11 11 10 11 11 13 14 15 16
5 6 5 4 4 3 4 3 3 4 5 6 6 6 6 7 8 8 7 7 8 10 10 10 10 10 9 9 9 9 11 13 15 17 19 20 20 18 16 13 11 11 12 12 11 10 10 10 10 11 12 13 12 12 11 11 11 12 12 13 14 15 16
7 7 7 5 5 5 5 5 5 5 6 8 8 8 9 9 9 9 9 9 9 10 11 12 12 11 10 9 8 6 7 10 11 13 14 15 14 13 12 11 11 11 11 11 10 9 10 10 11 12 12 12 11 12 12 12 12 13 13 14 15 17 19
7 8 8 7 7 7 7 7 6 6 7 8 9 9 10 11 10 10 10 11 12 12 12 12 11 11 9 8 6 6 8 11 13 13 13 12 11 11 12 12 11 10 10 9 9 10 11 12 11 11 10 9 10 11 12 13 15 16 17 19 20 21 22
5 6 6 7 7 8 8 8 8 8 8 8 9 10 11 12 13 12 11 12 13 13 13 12 11 10 8 7 7 9 12 14 15 14 13 13 13 12 11 10 9 9 9 9 10 11 11 10 9 8 7 8 10 12 13 14 16 17 17 18 18 17 17
6 5 5 6 7 9 10 11 11 10 9 9 9 10 11 13 14 12 11 11 13 14 14 13 11 10 9 9 11 13 14 15 15 15 14 14 13 10 8 7 7 6 7 7 8 7 6 5 5 6 7 9 10 11 12 12 12 13 14 14 15 16 16
9 8 8 9 11 12 13 14 13 11 10 10 9 9 11 13 12 11 10 10 11 12 12 12 12 12 12 12 13 13 13 14 15 15 13 11 10 9 8 7 6 5 5 4 4 2 2 4 6 8 9 9 9 9 9 10 11 11 13 14 16 16 17
10 10 10 10 11 12 12 13 13 12 11 10 9 8 10 10 10 9 8 8 9 10 11 11 11 12 12 12 12 12 12 12 12 13 12 10 8 8 7 6 6 5 3 2 2 4 6 8 8 8 7 6 6 7 8 10 11 12 13 14 15 16 16
10 9 9 10 11 12 12 12 13 14 13 11 9 8 8 8 8 8 7 7 8 10 11 12 12 12 12 12 12 12 12 12 12 11 11 9 7 7 7 6 4 2 0 3 5 6 6 5 4 4 4 5 6 7 8 9 10 11 12 13 14 15 16
10 10 11 12 14 15 16 15 15 16 15 13 11 9 7 8 9 8 7 7 9 11 13 13 13 13 12 12 12 12 12 12 11 10 9 7 6 6 6 4 2 0 2 4 5 5 3 3 2 3 4 5 6 7 7 8 10 11 13 14 15 16 16
Wind_Direction
151 147 145 143 140 141 139 135 133 137 139 131 113 89 92 115 126 124 118 113 116 120 120 115 110 105 95 90 90 92 108 148 188 185 166 170 190 202 205 208 225 251 63 21 353 111 117 49 324 336 352 336 299 279 268 250 230 232 241 239 238 243 245
154 149 147 144 141 140 139 137 135 136 142 143 135 108 97 105 114 117 115 110 112 118 118 112 112 110 101 94 93 95 100 103 110 120 131 155 177 172 179 188 190 178 92 46 20 52 99 102 311 323 355 359 350 344 308 260 245 242 249 255 258 255 249
156 152 149 148 151 151 147 146 144 141 142 143 143 133 116 109 111 112 106 99 104 116 120 115 114 114 109 103 99 99 105 104 104 103 103 109 113 125 158 175 169 153 105 63 52 58 89 91 86 334 345 352 352 6 12 349 288 265 263 264 259 254 253
160 156 154 154 158 159 155 152 149 145 144 143 139 136 131 122 117 112 103 95 96 103 110 114 118 119 117 116 112 108 108 109 110 107 99 98 98 97 108 129 134 122 102 81 66 65 78 77 77 32 347 354 336 353 20 33 35 17 320 289 268 259 255
165 162 160 161 164 164 160 156 153 151 149 149 146 137 134 133 127 119 111 104 100 97 97 103 110 117 119 121 124 121 117 118 120 118 107 101 102 97 94 99 106 102 90 82 76 71 71 71 76 64 3 6 349 355 30 49 56 54 45 30 343 284 271
172 170 166 166 168 167 165 162 161 159 156 154 152 144 139 141 139 132 125 116 111 103 96 98 99 108 116 114 116 121 124 124 123 120 114 106 103 100 96 95 97 93 81 73 70 69 68 65 64 48 11 27 21 4 32 51 61 59 49 46 48 49 38
179 178 173 172 173 172 170 168 168 163 158 156 154 149 145 146 148 145 139 132 127 118 109 106 100 99 107 104 101 106 114 122 125 118 112 109 104 100 100 100 95 89 78 66 59 65 63 60 62 45 14 37 43 26 40 48 54 51 40 41 49 54 55
185 186 181 178 178 178 175 172 170 165 159 157 156 154 150 148 150 151 150 147 142 136 128 122 109 99 103 105 104 102 102 111 128 125 117 114 109 100 96 99 101 89 68 57 56 68 72 69 65 52 41 53 35 21 33 35 40 38 30 30 39 41 43
188 189 188 186 184 181 179 177 174 168 162 160 159 159 157 152 150 151 154 155 152 147 142 137 127 115 115 116 112 108 104 104 121 128 126 120 112 103 92 86 98 90 72 68 67 73 82 74 67 53 48 60 68 33 16 13 11 22 25 23 20 22 23
191 189 189 189 188 186 184 184 180 173 169 165 164 163 163 160 157 154 152 155 157 156 152 151 143 132 131 129 117 111 109 105 114 124 129 126 117 109 95 78 88 97 88 81 76 77 80 69 63 56 44 50 62 85 94 25 319 330 19 19 9 2 2
196 193 193 191 190 190 191 191 189 183 177 172 168 166 166 164 161 159 154 152 158 161 160 159 156 146 139 134 125 117 117 114 114 116 124 134 131 122 103 85 92 102 91 82 80 76 70 59 52 50 47 41 41 59 112 95 292 296 9 10 5 356 352
199 197 195 195 194 195 195 196 196 192 185 180 175 170 169 168 162 160 159 154 159 164 166 164 164 165 155 146 146 144 147 152 132 112 115 133 141 136 111 88 87 98 91 88 85 65 51 44 30 26 30 19 17 23 33 63 137 262 342 355 358 356 353
198 198 199 199 200 199 199 198 199 197 192 187 183 177 173 172 167 164 163 161 164 169 174 174 173 178 178 175 170 164 169 175 160 135 122 131 138 139 116 82 70 87 95 108 104 62 44 36 22 18 19 10 17 20 6 9 313 285 313 342 351 353 354
192 195 202 203 202 202 201 198 196 196 195 192 191 187 183 179 177 177 177 176 174 171 175 179 181 188 193 195 190 187 192 192 182 178 175 158 152 152 145 99 65 69 59 52 111 81 55 46 40 47 47 30 33 31 12 2 337 309 315 331 338 343 347
195 198 205 206 205 203 200 196 193 192 194 195 195 195 192 190 190 192 195 197 195 187 183 185 188 194 201 204 206 204 204 203 198 194 200 198 189 191 200 189 182 151 16 16 37 94 45 35 35 41 38 26 21 20 15 8 358 332 323 326 330 335 339
200 204 209 207 203 200 196 195 193 193 194 195 197 199 200 200 202 204 207 207 208 207 204 202 202 205 208 209 211 211 210 210 207 202 206 210 207 207 204 199 204 221 284 341 0 64 33 11 7 9 9 4 357 357 360 359 358 352 335 328 329 333 337
191 196 204 203 198 195 193 195 196 195 193 192 194 198 202 205 208 213 217 215 213 216 219 219 219 220 221 219 218 218 217 216 215 214 215 215 214 216 213 211 218 224 237 253 248 241 261 297 318 323 328 331 331 332 335 341 346 347 341 332 327 329 334
189 185 190 203 201 196 191 189 189 189 189 189 191 194 200 205 209 216 221 220 219 221 224 226 228 231 231 229 226 226 224 221 221 221 222 221 220 223 223 220 221 223 232 235 228 236 249 261 283 297 309 316 318 321 323 325 330 332 334 334 329 327 328
191 189 191 206 211 209 202 191 185 184 187 189 190 194 198 202 209 217 223 224 227 231 232 232 234 237 236 233 230 230 229 227 226 225 226 226 223 224 225 222 220 222 227 228 226 235 243 251 274 290 302 312 314 314 316 318 322 324 326 329 330 329 329
195 194 196 207 217 221 220 209 200 200 201 204 209 215 215 213 216 220 223 224 227 234 240 240 240 241 239 235 232 230 229 229 229 229 229 229 227 226 226 221 219 222 224 226 228 229 235 245 262 280 299 312 312 311 314 318 321 327 331 332 334 334 332
206 203 199 206 216 222 226 226 227 228 228 230 237 244 246 244 240 232 230 233 236 243 251 253 250 246 241 238 234 233 231 229 229 229 229 229 228 228 228 224 221 224 229 232 232 229 232 240 248 271 305 315 312 311 314 319 328 337 343 344 344 342 336
214 213 205 205 213 222 231 237 241 241 241 243 248 252 252 252 250 247 248 254 255 254 255 256 255 250 243 239 236 235 234 232 232 231 228 226 225 225 227 225 224 227 233 234 233 233 235 240 251 280 310 316 312 312 312 320 338 344 346 348 347 343 337
202 210 211 213 220 226 230 233 236 239 243 248 251 254 255 258 261 261 262 264 262 257 254 255 256 253 248 244 239 237 237 236 234 232 229 225 221 220 222 223 223 227 231 231 232 239 244 247 260 284 302 306 305 304 301 318 339 344 346 347 342 339 334
199 205 211 219 222 225 232 236 240 248 254 259 262 263 267 270 271 271 271 270 268 264 262 265 266 263 260 255 251 249 245 243 240 236 231 226 221 218 218 219 220 222 223 225 229 238 245 250 265 284 294 295 290 285 285 305 326 335 337 334 330 329 324
200 204 215 225 225 227 236 245 253 264 270 275 279 278 276 277 279 282 280 277 276 274 273 276 276 273 270 265 263 261 256 251 247 240 232 227 223 218 215 214 214 216 218 222 227 233 239 249 266 281 287 285 279 276 283 292 304 315 320 320 318 318 315
201 205 208 208 204 199 197 202 217 261 287 299 300 291 283 278 279 284 282 274 271 271 275 281 283 281 279 276 272 267 262 255 249 242 236 229 223 217 212 209 207 208 213 220 225 229 236 248 264 275 277 274 271 275 282 285 289 297 305 309 310 311 315
179 171 164 159 158 155 149 141 129 104 28 347 337 327 313 296 286 284 280 269 261 261 267 276 283 285 287 289 286 277 265 256 250 245 239 229 221 215 210 206 202 203 212 221 225 228 237 249 263 271 273 273 273 275 279 281 286 293 301 304 304 305 310
170 161 160 161 163 169 183 197 211 253 284 302 315 321 326 325 320 309 292 273 259 258 265 276 285 289 291 292 292 285 268 254 245 239 231 221 213 206 201 198 202 212 222 226 226 229 239 250 259 265 270 273 274 274 273 276 281 286 291 293 293 296 300
212 195 194 199 200 210 223 237 255 268 278 284 289 297 309 321 325 318 301 280 263 260 268 280 286 290 292 291 291 285 266 247 234 225 214 206 201 197 195 202 214 221 222 222 225 231 241 250 256 259 264 266 265 263 262 265 270 275 279 282 286 290 292
235 216 215 223 227 229 227 232 248 262 276 284 287 294 302 309 314 309 293 274 260 257 262 268 274 279 286 291 293 278 243 217 201 193 188 187 191 191 191 200 208 207 209 216 223 234 245 251 250 251 252 252 252 253 257 263 268 272 276 279 283 287 289
229 215 219 226 224 222 221 223 239 258 273 284 292 302 307 305 303 303 293 274 260 256 256 255 260 267 272 277 274 240 206 185 169 161 157 158 168 175 177 185 196 202 211 223 232 240 246 247 243 240 242 246 256 266 273 280 283 284 286 287 288 290 290
238 231 236 235 226 226 231 240 258 269 270 275 286 296 305 308 306 303 295 272 253 248 248 248 250 252 247 237 225 209 193 177 162 156 158 162 169 177 185 193 205 218 228 235 239 239 237 236 236 241 254 270 284 291 293 296 299 299 299 300 301 302 302
273 265 259 259 262 265 267 271 274 269 260 260 272 286 298 306 306 301 290 268 246 237 237 233 225 220 214 205 201 197 193 185 176 171 173 177 179 179 183 192 200 211 221 224 226 226 227 237 257 276 291 298 303 306 307 309 312 313 314 315 315 315 314
274 275 278 283 287 285 282 279 273 262 253 253 262 280 296 300 298 291 278 259 238 225 221 214 202 198 197 193 192 193 190 185 181 176 172 172 172 169 170 178 182 184 194 202 208 235 285 303 306 308 311 312 316 320 321 321 322 321 319 318 317 316 316
278 280 282 285 288 288 286 280 268 255 249 251 262 282 293 291 284 274 260 242 223 206 199 195 190 189 191 189 187 186 181 173 174 176 172 164 162 164 165 170 175 178 189 226 308 322 319 316 315 316 317 322 329 328 322 319 320 319 317 316 317 316 316
271 274 278 284 289 291 291 282 267 255 250 251 262 276 280 272 262 253 237 218 203 191 185 182 179 178 178 177 175 176 175 168 166 171 172 166 160 157 156 159 163 165 267 329 327 324 319 316 320 327 330 330 328 321 315 313 315 316 315 315 314 312 312
261 265 274 283 287 290 290 284 270 257 250 250 253 252 247 242 238 231 221 207 191 182 178 175 172 172 173 174 172 172 173 170 168 174 180 175 161 150 146 143 136 1 322 319 318 317 311 299 297 305 309 312 315 313 312 315 319 320 317 313 309 306 306